Tracking 19817 objects as of 19-Aug-2019
HD Live streaming from Space Station
objects crossing your sky now

CZ-2D DEB

Track CZ-2D DEB now!
10-day predictions


NORAD ID: 38178
Int'l Code: 2011-068F
Perigee: 700.9 km
Apogee: 891.8 km
Inclination: 98.6 °
Period: 100.6 minutes
Semi major axis: 7167 km
RCS: 0.0014 m2 (small)
Launch date: November 20, 2011
Source: People's Republic of China (PRC)
Launch site: Jiuquan Satellite Launch Center, China (JSC)

Note: This is SATELLITE DEBRIS
aabbcc
Your satellite tracking list
Your tracking list is empty




NASA's NSSDC Master Catalog

Two Line Element Set (TLE):
1 38178U 11068F   19230.80466647 +.00000108 +00000-0 +53624-4 0  9992
2 38178 098.6080 204.0610 0133199 207.5930 271.0322 14.30760523400704
Source of the keplerian elements: AFSPC